Location: Monsanto
(38.0260°N, 122.0555°W)
Time: 15:21:12
(UTC+00:00)

NOSS 0 Rocket - Pass Details

Date: 29 May 2024
Orbit: 934 x 954 km, 70.0° (Epoch: 17 June)

Event Time Altitude Azimuth Distance (km) Brightness Sun altitude
Rises 12:03:55 0° 327° (NNW) 3,628 7.0 -8.2°
Reaches altitude 10° 12:06:38 10° 319° (NW) 2,681 6.3 -7.8°
Maximum altitude 12:12:15 37° 255° (WSW) 1,450 4.5 -6.9°
Drops below altitude 10° 12:17:51 10° 190° (S) 2,672 5.9 -6.0°
Sets 12:20:33 0° 182° (S) 3,614 6.6 -5.5°
